Track GLOBALSTAR M055 now! 10-day predictions GLOBALSTAR M055 is classified as:
1 25910U 99049D 22224.31494183 -.00000021 00000-0 62771-3 0 9993 2 25910 52.0021 96.1248 0007138 125.5123 234.6395 12.29368262 40385